When you browse on this site, cookies collect data to enhance your experience and personalize the content and advertising you see.
Visit our Privacy Policy to learn more. By continuing to use the site, you agree to this use of cookies and data.
  • en France
  • Liste des pays
  • À 7 jours
  • Température de l'eau
  • Carte satellitaire
  • Carte météo
  • Widgets météo
  • user-avatar
    Se connecter

    Météo par heure à Kepina

    Ce jour, 24 Janvier, Jeudi

    Heure Température Précipitation Vent Pression Humidité
    00:00 -8°C° 0 mm 4 m/s 746 mmHg 69%
    01:00 -9°C° 0 mm 4 m/s 746 mmHg 69%
    02:00 -9°C° 0 mm 4 m/s 746 mmHg 69%
    03:00 -9°C° 0 mm 4 m/s 746 mmHg 69%
    04:00 -9°C° 0 mm 4 m/s 747 mmHg 70%
    05:00 -9°C° 0 mm 4 m/s 747 mmHg 70%
    06:00 -9°C° 0 mm 4 m/s 747 mmHg 70%
    07:00 -9°C° 0 mm 4 m/s 747 mmHg 70%
    08:00 -9°C° 0 mm 4 m/s 748 mmHg 69%
    09:00 -10°C° 0 mm 5 m/s 748 mmHg 68%
    10:00 -10°C° 0 mm 5 m/s 748 mmHg 67%
    11:00 -8°C° 0 mm 5 m/s 748 mmHg 65%
    12:00 -8°C° 0 mm 5 m/s 748 mmHg 63%
    13:00 -7°C° 0 mm 5 m/s 748 mmHg 61%
    14:00 -7°C° 0 mm 5 m/s 748 mmHg 61%
    15:00 -7°C° 0 mm 5 m/s 748 mmHg 61%
    16:00 -8°C° 0 mm 5 m/s 748 mmHg 62%
    17:00 -8°C° 0 mm 5 m/s 748 mmHg 63%
    18:00 -8°C° 0 mm 5 m/s 748 mmHg 64%
    19:00 -8°C° 0 mm 5 m/s 748 mmHg 65%
    20:00 -8°C° 0 mm 5 m/s 749 mmHg 67%
    21:00 -8°C° 0 mm 5 m/s 749 mmHg 68%
    22:00 -9°C° 0 mm 4 m/s 749 mmHg 70%
    23:00 -9°C° 0 mm 4 m/s 749 mmHg 70%

    Demain, 25 Janvier, Vendredi

    Heure Température Précipitation Vent Pression Humidité
    00:00 -9°C° 0 mm 4 m/s 749 mmHg 70%
    01:00 -9°C° 0 mm 4 m/s 749 mmHg 70%
    02:00 -9°C° 0 mm 4 m/s 749 mmHg 70%
    03:00 -9°C° 0 mm 4 m/s 749 mmHg 71%
    04:00 -8°C° 0 mm 3 m/s 748 mmHg 71%
    05:00 -8°C° 0.1 mm 3 m/s 748 mmHg 74%
    06:00 -8°C° 0.1 mm 3 m/s 748 mmHg 76%
    07:00 -8°C° 0.1 mm 3 m/s 748 mmHg 79%
    08:00 -8°C° 0.1 mm 3 m/s 749 mmHg 79%
    09:00 -7°C° 0.1 mm 2 m/s 749 mmHg 78%
    10:00 -6°C° 0.1 mm 2 m/s 749 mmHg 78%
    11:00 -4°C° 0.1 mm 1 m/s 749 mmHg 77%
    12:00 -4°C° 0.1 mm 1 m/s 749 mmHg 75%
    13:00 -5°C° 0.1 mm 0 m/s 749 mmHg 74%
    14:00 -3°C° 0.1 mm 1 m/s 749 mmHg 74%
    15:00 -5°C° 0.1 mm 2 m/s 749 mmHg 75%
    16:00 -5°C° 0.1 mm 2 m/s 749 mmHg 75%
    17:00 -5°C° 0 mm 2 m/s 749 mmHg 75%
    18:00 -6°C° 0 mm 3 m/s 749 mmHg 75%
    19:00 -6°C° 0 mm 3 m/s 749 mmHg 74%
    20:00 -7°C° 0 mm 3 m/s 749 mmHg 75%
    21:00 -7°C° 0 mm 3 m/s 749 mmHg 75%
    22:00 -7°C° 0 mm 3 m/s 749 mmHg 75%
    23:00 -7°C° 0 mm 3 m/s 749 mmHg 74%

    Après-demain, 26 Janvier, Samedi

    Heure Température Précipitation Vent Pression Humidité
    00:00 -7°C° 0 mm 3 m/s 748 mmHg 74%
    01:00 -7°C° 0 mm 3 m/s 748 mmHg 74%
    02:00 -8°C° 0 mm 4 m/s 747 mmHg 73%
    03:00 -8°C° 0 mm 4 m/s 746 mmHg 72%
    04:00 -8°C° 0 mm 4 m/s 746 mmHg 72%
    05:00 -8°C° 0.2 mm 4 m/s 745 mmHg 76%
    06:00 -8°C° 0.2 mm 5 m/s 744 mmHg 80%
    07:00 -8°C° 0.2 mm 5 m/s 743 mmHg 84%
    08:00 -7°C° 0.8 mm 5 m/s 742 mmHg 87%
    09:00 -7°C° 0.8 mm 5 m/s 742 mmHg 90%
    10:00 -6°C° 0.8 mm 6 m/s 741 mmHg 93%
    11:00 -5°C° 0.6 mm 5 m/s 740 mmHg 93%
    12:00 -4°C° 0.6 mm 5 m/s 739 mmHg 93%
    13:00 -2°C° 0.6 mm 4 m/s 739 mmHg 93%
    14:00 -2°C° 0 mm 4 m/s 739 mmHg 93%
    15:00 -2°C° 0 mm 4 m/s 739 mmHg 94%
    16:00 -2°C° 0 mm 4 m/s 739 mmHg 94%
    17:00 -1°C° 0 mm 3 m/s 739 mmHg 94%
    18:00 -1°C° 0 mm 3 m/s 739 mmHg 94%
    19:00 -1°C° 0 mm 3 m/s 740 mmHg 94%
    20:00 -1°C° 0.2 mm 3 m/s 740 mmHg 95%
    21:00 -2°C° 0.2 mm 4 m/s 740 mmHg 95%
    22:00 -2°C° 0.2 mm 4 m/s 741 mmHg 95%
    23:00 -1°C° 0 mm 3 m/s 741 mmHg 96%

    27 Janvier, Dimanche

    Heure Température Précipitation Vent Pression Humidité
    00:00 -1°C° 0 mm 3 m/s 741 mmHg 97%
    01:00 -1°C° 0 mm 2 m/s 741 mmHg 97%
    02:00 +1°C° 0 mm 1 m/s 741 mmHg 97%
    03:00 0°C° 0 mm 1 m/s 740 mmHg 97%
    04:00 0°C° 0 mm 1 m/s 740 mmHg 97%
    05:00 0°C° 0.1 mm 1 m/s 740 mmHg 97%
    06:00 -2°C° 0.1 mm 2 m/s 740 mmHg 97%
    07:00 -2°C° 0.1 mm 3 m/s 739 mmHg 97%
    08:00 -1°C° 0.2 mm 3 m/s 739 mmHg 96%
    09:00 -2°C° 0.2 mm 4 m/s 739 mmHg 96%
    10:00 -2°C° 0.2 mm 4 m/s 739 mmHg 96%
    11:00 -2°C° 0.5 mm 4 m/s 738 mmHg 97%
    12:00 0°C° 0.5 mm 3 m/s 737 mmHg 98%
    13:00 0°C° 0.5 mm 3 m/s 737 mmHg 99%
    14:00 0°C° 0.1 mm 3 m/s 736 mmHg 99%
    15:00 0°C° 0.1 mm 3 m/s 736 mmHg 99%
    16:00 0°C° 0.1 mm 3 m/s 736 mmHg 99%
    17:00 0°C° 0.1 mm 3 m/s 735 mmHg 97%
    18:00 0°C° 0.1 mm 3 m/s 735 mmHg 96%
    19:00 0°C° 0.1 mm 3 m/s 735 mmHg 95%
    20:00 0°C° 0 mm 3 m/s 735 mmHg 94%
    21:00 0°C° 0 mm 3 m/s 735 mmHg 93%
    22:00 -1°C° 0 mm 4 m/s 734 mmHg 91%
    23:00 0°C° 0.1 mm 3 m/s 734 mmHg 91%

    28 Janvier, Lundi

    Heure Température Précipitation Vent Pression Humidité
    00:00 0°C° 0.1 mm 3 m/s 734 mmHg 90%
    01:00 0°C° 0.1 mm 3 m/s 734 mmHg 90%
    02:00 0°C° 0.1 mm 3 m/s 733 mmHg 91%
    03:00 0°C° 0.1 mm 3 m/s 733 mmHg 91%
    04:00 -1°C° 0.1 mm 4 m/s 732 mmHg 91%
    05:00 -1°C° 0 mm 3 m/s 732 mmHg 92%
    06:00 -1°C° 0 mm 3 m/s 732 mmHg 92%
    07:00 -1°C° 0 mm 3 m/s 732 mmHg 93%
    08:00 -1°C° 0 mm 3 m/s 732 mmHg 92%
    09:00 0°C° 0 mm 3 m/s 733 mmHg 92%
    10:00 0°C° 0 mm 3 m/s 733 mmHg 91%
    11:00 0°C° 0 mm 3 m/s 732 mmHg 93%
    12:00 0°C° 0 mm 3 m/s 732 mmHg 96%
    13:00 +1°C° 0 mm 2 m/s 732 mmHg 98%
    14:00 +1°C° 0.2 mm 2 m/s 732 mmHg 97%
    15:00 0°C° 0.2 mm 3 m/s 732 mmHg 97%
    16:00 0°C° 0.2 mm 3 m/s 732 mmHg 96%
    17:00 0°C° 0.2 mm 3 m/s 732 mmHg 95%
    18:00 0°C° 0.2 mm 3 m/s 732 mmHg 94%
    19:00 0°C° 0.2 mm 3 m/s 732 mmHg 93%
    20:00 0°C° 0 mm 3 m/s 732 mmHg 92%
    21:00 0°C° 0 mm 3 m/s 732 mmHg 92%
    22:00 0°C° 0 mm 3 m/s 732 mmHg 91%
    23:00 -1°C° 0 mm 4 m/s 733 mmHg 92%

    29 Janvier, Mardi

    Heure Température Précipitation Vent Pression Humidité
    00:00 -1°C° 0 mm 4 m/s 733 mmHg 93%
    01:00 -1°C° 0 mm 4 m/s 733 mmHg 95%
    02:00 -1°C° 0.2 mm 5 m/s 734 mmHg 95%
    03:00 -2°C° 0.2 mm 6 m/s 734 mmHg 95%
    04:00 -2°C° 0.2 mm 6 m/s 734 mmHg 95%
    05:00 -2°C° 0.2 mm 7 m/s 735 mmHg 93%
    06:00 -2°C° 0.2 mm 7 m/s 736 mmHg 91%
    07:00 -2°C° 0.2 mm 7 m/s 737 mmHg 89%
    08:00 -3°C° 0.1 mm 7 m/s 738 mmHg 87%
    09:00 -3°C° 0.1 mm 7 m/s 739 mmHg 85%
    10:00 -4°C° 0.1 mm 7 m/s 740 mmHg 82%
    11:00 -3°C° 0 mm 6 m/s 741 mmHg 82%
    12:00 -3°C° 0 mm 6 m/s 741 mmHg 82%
    13:00 -2°C° 0 mm 5 m/s 741 mmHg 82%
    14:00 -2°C° 0 mm 5 m/s 742 mmHg 83%
    15:00 -2°C° 0 mm 5 m/s 742 mmHg 84%
    16:00 -2°C° 0 mm 5 m/s 742 mmHg 86%
    17:00 -2°C° 0 mm 5 m/s 742 mmHg 86%
    18:00 -2°C° 0 mm 4 m/s 742 mmHg 86%
    19:00 -3°C° 0 mm 4 m/s 742 mmHg 87%
    20:00 -3°C° 0 mm 4 m/s 742 mmHg 87%
    21:00 -3°C° 0 mm 4 m/s 743 mmHg 87%
    22:00 -3°C° 0 mm 4 m/s 743 mmHg 87%
    23:00 -3°C° 0 mm 4 m/s 742 mmHg 86%
    Voir plus